LOT89D LATI-EPWA

Flight info

Callsign LOT89D
Flight time 1h 42m
Altitude 36000
Route RINA2W RINAV ALELU PARAK PITOK ORTEB KONZI LOGDA LOGD6U
Aircraft B38M/M-SDE1E2E3FGHIJ2J3J4J5M1RWXYZ/HB1

Departure

Time 2026-05-04 12:02
Airport Tirana International Airport Mother Teresa (LATI)

Arrival

Time 2026-05-04 13:45
Airport Warsaw Chopin Airport (EPWA)
Time Latitude Longitude Altitude Speed Heading
2026-05-04 11:27 41.42262 19.71480 118 ft 0 kts 264°
2026-05-04 11:51 41.42263 19.71489 118 ft 2 kts 264°
2026-05-04 11:51 41.42265 19.71509 118 ft 2 kts 264°
2026-05-04 11:52 41.42266 19.71529 118 ft 2 kts 261°
2026-05-04 11:52 41.42274 19.71542 117 ft 2 kts 196°
2026-05-04 11:52 41.42288 19.71541 117 ft 2 kts 167°
2026-05-04 11:52 41.42303 19.71539 117 ft 2 kts 177°
2026-05-04 11:53 41.42316 19.71537 117 ft 0 kts 173°
2026-05-04 11:53 41.42318 19.71537 117 ft 0 kts 174°
2026-05-04 11:55 41.42117 19.71563 120 ft 30 kts 175°
2026-05-04 11:55 41.41917 19.71588 121 ft 27 kts 175°
2026-05-04 11:56 41.41733 19.71611 123 ft 25 kts 174°
2026-05-04 11:56 41.41549 19.71636 125 ft 28 kts 174°
2026-05-04 11:56 41.41349 19.71662 126 ft 29 kts 174°
2026-05-04 11:56 41.41154 19.71688 130 ft 27 kts 174°
2026-05-04 11:57 41.40972 19.71715 130 ft 25 kts 171°
2026-05-04 11:57 41.40803 19.71748 130 ft 23 kts 170°
2026-05-04 11:57 41.40642 19.71775 130 ft 22 kts 174°
2026-05-04 11:57 41.40507 19.71793 132 ft 15 kts 174°
2026-05-04 11:58 41.40410 19.71811 133 ft 13 kts 158°
2026-05-04 11:58 41.40324 19.71889 134 ft 20 kts 143°
2026-05-04 11:58 41.40243 19.72002 135 ft 14 kts 99°
2026-05-04 11:58 41.40247 19.72097 135 ft 6 kts 84°
2026-05-04 11:59 41.40253 19.72150 136 ft 7 kts 75°
2026-05-04 11:59 41.40295 19.72213 137 ft 7 kts 354°
2026-05-04 11:59 41.40323 19.72206 137 ft 0 kts 355°
2026-05-04 12:00 41.40325 19.72206 137 ft 1 kts 355°
2026-05-04 12:00 41.40432 19.72192 135 ft 50 kts 354°
2026-05-04 12:00 41.41077 19.72101 132 ft 122 kts 354°
2026-05-04 12:00 41.42088 19.71973 233 ft 174 kts 352°
2026-05-04 12:01 41.42115 19.71970 244 ft 174 kts 352°
2026-05-04 12:02 41.46444 19.71470 2806 ft 198 kts 357°
2026-05-04 12:03 41.47881 19.71318 3290 ft 217 kts 356°
2026-05-04 12:03 41.49428 19.71140 3892 ft 232 kts 356°
2026-05-04 12:03 41.51070 19.70949 4537 ft 246 kts 356°
2026-05-04 12:03 41.52818 19.70749 5194 ft 260 kts 358°
2026-05-04 12:04 41.54522 19.70787 5974 ft 264 kts
2026-05-04 12:04 41.56318 19.71161 6901 ft 264 kts 11°
2026-05-04 12:04 41.58126 19.71591 7825 ft 265 kts 11°
2026-05-04 12:04 41.59929 19.71976 8651 ft 269 kts
2026-05-04 12:05 41.61782 19.72327 9527 ft 270 kts
2026-05-04 12:05 41.63679 19.72666 10089 ft 280 kts
2026-05-04 12:05 41.65590 19.73000 10763 ft 287 kts
2026-05-04 12:05 41.67620 19.73359 11262 ft 301 kts
2026-05-04 12:06 41.69722 19.73731 11756 ft 313 kts
2026-05-04 12:06 41.71917 19.74121 12475 ft 318 kts
2026-05-04 12:06 41.74084 19.74504 13307 ft 318 kts
2026-05-04 12:06 41.76274 19.74892 14026 ft 321 kts
2026-05-04 12:07 41.78511 19.75289 14761 ft 324 kts
2026-05-04 12:07 41.80753 19.75687 15506 ft 325 kts
2026-05-04 12:07 41.82999 19.76086 16199 ft 328 kts
2026-05-04 12:07 41.85234 19.76484 16855 ft 331 kts
2026-05-04 12:08 41.87558 19.76897 17488 ft 335 kts
2026-05-04 12:08 41.89848 19.77304 18201 ft 336 kts
2026-05-04 12:08 41.92198 19.77721 18776 ft 342 kts
2026-05-04 12:08 41.94550 19.78140 19472 ft 342 kts
2026-05-04 12:09 41.96888 19.78558 20062 ft 346 kts
2026-05-04 12:09 41.99297 19.78975 20720 ft 347 kts
2026-05-04 12:09 42.01683 19.79316 21235 ft 351 kts
2026-05-04 12:09 42.04128 19.79614 21829 ft 354 kts
2026-05-04 12:10 42.06606 19.79902 22369 ft 357 kts
2026-05-04 12:10 42.09080 19.80194 22898 ft 360 kts
2026-05-04 12:10 42.11574 19.80494 23460 ft 362 kts
2026-05-04 12:10 42.14104 19.80805 23997 ft 365 kts
2026-05-04 12:11 42.16629 19.81119 24500 ft 368 kts
2026-05-04 12:11 42.19155 19.81434 25046 ft 369 kts
2026-05-04 12:11 42.21726 19.81753 25483 ft 373 kts
2026-05-04 12:11 42.24311 19.82075 25972 ft 374 kts
2026-05-04 12:12 42.26923 19.82403 26416 ft 377 kts
2026-05-04 12:12 42.29529 19.82731 26858 ft 379 kts
2026-05-04 12:12 42.32167 19.83063 27317 ft 381 kts
2026-05-04 12:12 42.34820 19.83398 27712 ft 384 kts
2026-05-04 12:13 42.37480 19.83734 28128 ft 386 kts
2026-05-04 12:14 42.56597 19.85690 30788 ft 402 kts
2026-05-04 12:15 42.59396 19.85834 31178 ft 404 kts
2026-05-04 12:15 42.62205 19.85984 31520 ft 406 kts
2026-05-04 12:15 42.65053 19.86145 31800 ft 410 kts
2026-05-04 12:15 42.67907 19.86311 32177 ft 412 kts
2026-05-04 12:16 42.70778 19.86486 32590 ft 412 kts
2026-05-04 12:16 42.73648 19.86664 33162 ft 408 kts
2026-05-04 12:16 42.76453 19.86839 33634 ft 407 kts
2026-05-04 12:16 42.79290 19.87015 34086 ft 406 kts
2026-05-04 12:17 42.82060 19.87188 34488 ft 405 kts
2026-05-04 12:17 42.84861 19.87364 34802 ft 405 kts
2026-05-04 12:17 42.87687 19.87540 35152 ft 404 kts
2026-05-04 12:17 42.90505 19.87717 35399 ft 406 kts
2026-05-04 12:18 42.93322 19.87894 35641 ft 407 kts
2026-05-04 12:18 42.96152 19.88073 35957 ft 407 kts
2026-05-04 12:18 42.98958 19.88251 36152 ft 408 kts
2026-05-04 12:18 43.01827 19.88431 36177 ft 410 kts
2026-05-04 12:19 43.07476 19.88787 36179 ft 406 kts
2026-05-04 12:19 43.13109 19.89146 36182 ft 408 kts
2026-05-04 12:20 43.18782 19.89507 36183 ft 408 kts
2026-05-04 12:20 43.24468 19.89869 36174 ft 409 kts
2026-05-04 12:21 43.29956 19.90220 36176 ft 409 kts
2026-05-04 12:21 43.35638 19.90584 36178 ft 408 kts
2026-05-04 12:22 43.41315 19.90949 36172 ft 408 kts
2026-05-04 12:22 43.46995 19.91311 36173 ft 408 kts
2026-05-04 12:23 43.52682 19.91673 36177 ft 409 kts
2026-05-04 12:23 43.58370 19.92041 36175 ft 409 kts
2026-05-04 12:24 43.64074 19.92410 36150 ft 408 kts
2026-05-04 12:24 43.69720 19.92777 36162 ft 409 kts
2026-05-04 12:25 43.75419 19.93145 36159 ft 409 kts
2026-05-04 12:25 43.81093 19.93512 36159 ft 409 kts
2026-05-04 12:26 43.86805 19.93884 36146 ft 411 kts
2026-05-04 12:26 43.92411 19.94250 36142 ft 409 kts
2026-05-04 12:27 43.98108 19.94621 36138 ft 409 kts
2026-05-04 12:27 44.03780 19.94992 36141 ft 410 kts
2026-05-04 12:28 44.09499 19.95367 36129 ft 410 kts
2026-05-04 12:28 44.15208 19.95740 36134 ft 410 kts
2026-05-04 12:29 44.20921 19.96113 36114 ft 411 kts
2026-05-04 12:29 44.26603 19.96489 36122 ft 410 kts
2026-05-04 12:30 44.32322 19.96864 36112 ft 409 kts
2026-05-04 12:30 44.38028 19.97242 36112 ft 411 kts
2026-05-04 12:31 44.43750 19.97620 36103 ft 412 kts
2026-05-04 12:31 44.49483 19.98001 36110 ft 410 kts
2026-05-04 12:32 44.58060 19.98571 36105 ft 411 kts
2026-05-04 12:33 44.63759 19.98948 36107 ft 412 kts
2026-05-04 12:33 44.69488 19.99331 36109 ft 412 kts
2026-05-04 12:34 44.75181 19.99715 36112 ft 412 kts
2026-05-04 12:34 44.80920 20.00102 36109 ft 413 kts
2026-05-04 12:35 44.86644 20.00487 36113 ft 413 kts
2026-05-04 12:35 44.92394 20.00874 36113 ft 413 kts
2026-05-04 12:36 44.98109 20.01261 36112 ft 412 kts
2026-05-04 12:36 45.03830 20.01647 36114 ft 412 kts
2026-05-04 12:37 45.09567 20.02034 36110 ft 413 kts
2026-05-04 12:37 45.15342 20.02425 36103 ft 415 kts
2026-05-04 12:38 45.21081 20.02816 36100 ft 414 kts
2026-05-04 12:38 45.26846 20.03209 36097 ft 414 kts
2026-05-04 12:39 45.32600 20.03600 36093 ft 414 kts
2026-05-04 12:39 45.38381 20.03994 36090 ft 414 kts
2026-05-04 12:40 45.44138 20.04390 36089 ft 414 kts
2026-05-04 12:40 45.49871 20.04784 36089 ft 416 kts
2026-05-04 12:41 45.55638 20.05183 36087 ft 416 kts
2026-05-04 12:41 45.61450 20.05584 36088 ft 415 kts
2026-05-04 12:42 45.67220 20.05983 36086 ft 416 kts
2026-05-04 12:42 45.72998 20.06385 36086 ft 417 kts
2026-05-04 12:43 45.78793 20.06787 36086 ft 416 kts
2026-05-04 12:43 45.84579 20.07189 36084 ft 417 kts
2026-05-04 12:44 45.90365 20.07591 36084 ft 419 kts
2026-05-04 12:44 45.96170 20.07997 36080 ft 419 kts
2026-05-04 12:45 46.01973 20.08403 36079 ft 418 kts
2026-05-04 12:45 46.07772 20.08810 36086 ft 418 kts
2026-05-04 12:46 46.13606 20.09222 36084 ft 419 kts
2026-05-04 12:46 46.19403 20.09689 36083 ft 419 kts
2026-05-04 12:47 46.25209 20.10403 36079 ft 419 kts
2026-05-04 12:47 46.31038 20.11172 36080 ft 418 kts
2026-05-04 12:48 46.36846 20.11925 36081 ft 419 kts
2026-05-04 12:48 46.42661 20.12663 36079 ft 420 kts
2026-05-04 12:49 46.48463 20.13389 36083 ft 420 kts
2026-05-04 12:49 46.54285 20.14118 36078 ft 420 kts
2026-05-04 12:50 46.60062 20.14841 36083 ft 419 kts
2026-05-04 12:50 46.65907 20.15575 36081 ft 420 kts
2026-05-04 12:51 46.71769 20.16313 36082 ft 421 kts
2026-05-04 12:51 46.77580 20.17045 36083 ft 420 kts
2026-05-04 12:52 46.83408 20.17781 36086 ft 420 kts
2026-05-04 12:52 46.89251 20.18521 36083 ft 420 kts
2026-05-04 12:53 46.95042 20.19255 36083 ft 421 kts
2026-05-04 12:53 47.00880 20.19999 36087 ft 421 kts
2026-05-04 12:54 47.06697 20.20740 36086 ft 420 kts
2026-05-04 12:54 47.12507 20.21481 36086 ft 420 kts
2026-05-04 12:55 47.18338 20.22226 36085 ft 421 kts
2026-05-04 12:55 47.24188 20.22975 36086 ft 421 kts
2026-05-04 12:56 47.29995 20.23720 36083 ft 422 kts
2026-05-04 12:56 47.35844 20.24473 36082 ft 422 kts
2026-05-04 12:57 47.41731 20.25233 36080 ft 422 kts
2026-05-04 12:57 47.47582 20.25990 36078 ft 422 kts
2026-05-04 12:58 47.53433 20.26747 36079 ft 423 kts
2026-05-04 12:58 47.59302 20.27510 36078 ft 423 kts
2026-05-04 12:59 47.65178 20.28276 36077 ft 424 kts
2026-05-04 12:59 47.71034 20.29041 36080 ft 423 kts
2026-05-04 13:00 47.76938 20.29814 36081 ft 424 kts
2026-05-04 13:00 47.82784 20.30581 36084 ft 424 kts
2026-05-04 13:01 47.88651 20.31352 36089 ft 424 kts
2026-05-04 13:01 47.94435 20.32113 36091 ft 424 kts
2026-05-04 13:02 48.00352 20.32893 36095 ft 425 kts
2026-05-04 13:02 48.06222 20.33669 36094 ft 425 kts
2026-05-04 13:03 48.12102 20.34450 36089 ft 425 kts
2026-05-04 13:03 48.18010 20.35236 36091 ft 425 kts
2026-05-04 13:04 48.23914 20.36021 36085 ft 426 kts
2026-05-04 13:04 48.29829 20.36811 36081 ft 426 kts
2026-05-04 13:05 48.35520 20.37544 36079 ft 426 kts
2026-05-04 13:05 48.41425 20.38184 36078 ft 426 kts
2026-05-04 13:06 48.47346 20.38798 36074 ft 427 kts
2026-05-04 13:06 48.53279 20.39423 36077 ft 428 kts
2026-05-04 13:07 48.59200 20.40058 36077 ft 428 kts
2026-05-04 13:07 48.65147 20.40702 36081 ft 428 kts
2026-05-04 13:08 48.71056 20.41345 36083 ft 428 kts
2026-05-04 13:08 48.76600 20.41950 36092 ft 427 kts
2026-05-04 13:09 48.82821 20.42632 36082 ft 429 kts
2026-05-04 13:09 48.88793 20.43288 36086 ft 430 kts
2026-05-04 13:10 48.94749 20.43944 36082 ft 429 kts
2026-05-04 13:10 49.00659 20.44596 36091 ft 429 kts
2026-05-04 13:11 49.06669 20.45261 36095 ft 430 kts
2026-05-04 13:11 49.12630 20.45921 36092 ft 430 kts
2026-05-04 13:12 49.18562 20.46581 36095 ft 431 kts
2026-05-04 13:12 49.24548 20.47248 36088 ft 432 kts
2026-05-04 13:13 49.30283 20.47890 36086 ft 431 kts
2026-05-04 13:13 49.36298 20.48562 36076 ft 431 kts
2026-05-04 13:14 49.42241 20.49226 36072 ft 432 kts
2026-05-04 13:14 49.48247 20.49902 36067 ft 432 kts
2026-05-04 13:15 49.54274 20.50582 36065 ft 433 kts
2026-05-04 13:15 49.60271 20.51259 36057 ft 433 kts
2026-05-04 13:16 49.66280 20.51939 36052 ft 432 kts
2026-05-04 13:16 49.72253 20.52618 36050 ft 433 kts
2026-05-04 13:17 49.78229 20.53299 36042 ft 433 kts
2026-05-04 13:17 49.84268 20.53987 36030 ft 433 kts
2026-05-04 13:18 49.90251 20.54671 36030 ft 434 kts
2026-05-04 13:18 49.96253 20.55360 36019 ft 435 kts
2026-05-04 13:19 50.02301 20.56056 36015 ft 435 kts
2026-05-04 13:19 50.08234 20.56740 36012 ft 435 kts
2026-05-04 13:20 50.14239 20.57412 36010 ft 435 kts
2026-05-04 13:20 50.20280 20.58030 36009 ft 435 kts
2026-05-04 13:21 50.26323 20.58639 36008 ft 436 kts
2026-05-04 13:21 50.32350 20.59253 36009 ft 436 kts
2026-05-04 13:22 50.38414 20.59876 36008 ft 437 kts
2026-05-04 13:22 50.44452 20.60502 35739 ft 433 kts
2026-05-04 13:22 50.47425 20.60812 35191 ft 432 kts
2026-05-04 13:23 50.50404 20.61123 34508 ft 434 kts
2026-05-04 13:23 50.53413 20.61435 33746 ft 435 kts
2026-05-04 13:23 50.56413 20.61748 33030 ft 435 kts
2026-05-04 13:23 50.59433 20.62063 32540 ft 429 kts
2026-05-04 13:24 50.62373 20.62371 32011 ft 425 kts
2026-05-04 13:24 50.65309 20.62678 31458 ft 421 kts
2026-05-04 13:24 50.68208 20.62980 30907 ft 417 kts
2026-05-04 13:25 50.73948 20.63581 29809 ft 411 kts
2026-05-04 13:25 50.76485 20.63846 29318 ft 408 kts
2026-05-04 13:25 50.79297 20.64140 28774 ft 405 kts
2026-05-04 13:25 50.82068 20.64430 28236 ft 401 kts
2026-05-04 13:26 50.84851 20.64725 27690 ft 399 kts
2026-05-04 13:26 50.87575 20.65016 27161 ft 396 kts
2026-05-04 13:26 50.90305 20.65304 26628 ft 392 kts
2026-05-04 13:26 50.93017 20.65589 26095 ft 389 kts
2026-05-04 13:27 50.95694 20.65871 25569 ft 386 kts
2026-05-04 13:27 50.98379 20.66155 25035 ft 383 kts
2026-05-04 13:27 51.00993 20.66431 24505 ft 380 kts
2026-05-04 13:27 51.03616 20.66709 23986 ft 377 kts
2026-05-04 13:28 51.06208 20.66984 23469 ft 373 kts
2026-05-04 13:28 51.08780 20.67258 22953 ft 371 kts
2026-05-04 13:28 51.11346 20.67530 22532 ft 369 kts
2026-05-04 13:28 51.13906 20.67803 22177 ft 366 kts
2026-05-04 13:29 51.16411 20.68071 21877 ft 363 kts
2026-05-04 13:29 51.18930 20.68342 21591 ft 362 kts
2026-05-04 13:29 51.21445 20.68611 21305 ft 361 kts
2026-05-04 13:29 51.23926 20.68876 21024 ft 361 kts
2026-05-04 13:30 51.26426 20.69210 20744 ft 361 kts
2026-05-04 13:30 51.28915 20.69817 20461 ft 362 kts
2026-05-04 13:30 51.31343 20.70799 20167 ft 362 kts 14°
2026-05-04 13:30 51.33739 20.71992 19440 ft 368 kts 15°
2026-05-04 13:31 51.36152 20.73295 18659 ft 368 kts 16°
2026-05-04 13:31 51.38553 20.74628 17859 ft 365 kts 17°
2026-05-04 13:31 51.40935 20.75957 17096 ft 361 kts 16°
2026-05-04 13:31 51.43283 20.77255 16333 ft 357 kts 16°
2026-05-04 13:32 51.45593 20.78519 15573 ft 354 kts 16°
2026-05-04 13:32 51.47929 20.79786 14817 ft 350 kts 16°
2026-05-04 13:32 51.50198 20.81011 14078 ft 347 kts 15°
2026-05-04 13:32 51.52447 20.82222 13360 ft 344 kts 15°
2026-05-04 13:33 51.54613 20.83390 12670 ft 340 kts 15°
2026-05-04 13:33 51.56934 20.84643 11924 ft 337 kts 16°
2026-05-04 13:33 51.59131 20.85830 11223 ft 333 kts 16°
2026-05-04 13:33 51.61283 20.86994 10548 ft 330 kts 16°
2026-05-04 13:34 51.63429 20.88156 10072 ft 319 kts 16°
2026-05-04 13:34 51.65470 20.89266 9970 ft 298 kts 16°
2026-05-04 13:34 51.67364 20.90299 9855 ft 281 kts 16°
2026-05-04 13:34 51.69170 20.91427 9519 ft 276 kts 22°
2026-05-04 13:35 51.70867 20.92792 9170 ft 272 kts 26°
2026-05-04 13:35 51.74308 20.95814 8462 ft 288 kts 26°
2026-05-04 13:35 51.76060 20.97342 8105 ft 287 kts 26°
2026-05-04 13:36 51.77834 20.98876 7770 ft 285 kts 26°
2026-05-04 13:36 51.79575 21.00374 7442 ft 284 kts 26°
2026-05-04 13:36 51.81311 21.01865 7086 ft 283 kts 26°
2026-05-04 13:36 51.83030 21.03343 6732 ft 283 kts 26°
2026-05-04 13:37 51.84774 21.04844 6374 ft 282 kts 26°
2026-05-04 13:37 51.86472 21.06419 6017 ft 282 kts 33°
2026-05-04 13:37 51.87905 21.08541 5657 ft 283 kts 53°
2026-05-04 13:37 51.88607 21.10342 5403 ft 283 kts 62°
2026-05-04 13:38 51.89759 21.14113 5047 ft 277 kts 58°
2026-05-04 13:38 51.91047 21.16303 4898 ft 265 kts 26°
2026-05-04 13:38 51.92758 21.16950 4727 ft 251 kts 352°
2026-05-04 13:38 51.94391 21.16187 4528 ft 240 kts 328°
2026-05-04 13:39 51.95776 21.14843 4291 ft 228 kts 325°
2026-05-04 13:39 51.97137 21.13588 4027 ft 220 kts 328°
2026-05-04 13:39 51.98456 21.12452 3796 ft 214 kts 328°
2026-05-04 13:39 51.99748 21.11350 3581 ft 207 kts 328°
2026-05-04 13:40 52.01012 21.10261 3364 ft 201 kts 328°
2026-05-04 13:40 52.02209 21.09217 3187 ft 194 kts 327°
2026-05-04 13:40 52.03378 21.08193 3030 ft 186 kts 324°
2026-05-04 13:40 52.04523 21.07271 2852 ft 183 kts 334°
2026-05-04 13:41 52.05656 21.06473 2654 ft 172 kts 326°
2026-05-04 13:41 52.06662 21.05523 2342 ft 162 kts 324°
2026-05-04 13:41 52.07333 21.04880 2175 ft 154 kts 324°
2026-05-04 13:42 52.08055 21.04192 1943 ft 146 kts 324°
2026-05-04 13:42 52.08909 21.03432 1829 ft 139 kts 327°
2026-05-04 13:43 52.09759 21.02705 1651 ft 139 kts 326°
2026-05-04 13:43 52.10628 21.01938 1480 ft 142 kts 327°
2026-05-04 13:43 52.11496 21.01180 1360 ft 142 kts 327°
2026-05-04 13:43 52.12369 21.00403 1196 ft 145 kts 326°
2026-05-04 13:44 52.13257 20.99632 992 ft 144 kts 328°
2026-05-04 13:44 52.14145 20.98849 751 ft 148 kts 327°
2026-05-04 13:44 52.15045 20.98054 496 ft 150 kts 328°
2026-05-04 13:44 52.15844 20.97360 347 ft 144 kts 329°
2026-05-04 13:45 52.16522 20.96745 334 ft 62 kts 338°
2026-05-04 13:45 52.16829 20.96488 332 ft 38 kts 332°
2026-05-04 13:45 52.16969 20.96368 334 ft 10 kts 332°
2026-05-04 13:45 52.17020 20.96378 335 ft 7 kts 44°
2026-05-04 13:46 52.17044 20.96435 335 ft 5 kts 61°
2026-05-04 13:46 52.17062 20.96489 335 ft 5 kts 61°
2026-05-04 13:46 52.17084 20.96554 334 ft 7 kts 61°
2026-05-04 13:46 52.17108 20.96626 333 ft 6 kts 62°
2026-05-04 13:47 52.17126 20.96684 334 ft 5 kts 62°
2026-05-04 13:47 52.17142 20.96731 334 ft 4 kts 62°
2026-05-04 13:47 52.17155 20.96772 334 ft 4 kts 62°
2026-05-04 13:47 52.17159 20.96827 334 ft 6 kts 116°
2026-05-04 13:48 52.17125 20.96873 335 ft 7 kts 148°
2026-05-04 13:48 52.17071 20.96921 334 ft 11 kts 152°
2026-05-04 13:48 52.17034 20.96953 334 ft 3 kts 152°
2026-05-04 13:48 52.17025 20.96980 335 ft 4 kts 85°
2026-05-04 13:49 52.17033 20.97016 336 ft 4 kts 65°
2026-05-04 13:49 52.17041 20.97052 337 ft 4 kts 77°
2026-05-04 13:49 52.17044 20.97078 338 ft 0 kts 77°
2026-05-04 13:49 52.17046 20.97091 339 ft 2 kts 77°
2026-05-04 13:50 52.17048 20.97102 339 ft 0 kts 77°